RYR77TA LOWW-GCFV

Flight info

Callsign RYR77TA
Flight time 4h 36m
Altitude 34000
Route OSPEN DCT ABRUK DCT SETAL DCT INGID DCT DETSA/N0446F350 DCT GEKBA DCT VAMTU DCT KOLON DCT GANGU DCT PADKO DCT DIVKO DCT NILDU DCT NENDA DCT BCN DCT RODRA DCT PEXOT DCT EBROX DCT LOTOS DCT TORDU DCT DIKUT DCT SOPET DCT VLC DCT BEGOX DCT NARGO DCT RESTU DCT DOSEK DCT AMR DCT GONZA DCT BERUM UG850 BOKPA/N0451F370 UG850 FES UM372 MAK UG850 ADM UN869 RUSIK
Aircraft A320/M-SDE3FGHIRWY/LB1

Departure

Time 2026-04-23 08:03
Airport Vienna International Airport (LOWW)

Arrival

Time 2026-04-23 12:39
Airport Fuerteventura Airport (GCFV)
Time Latitude Longitude Altitude Speed Heading
2026-04-23 07:18 48.11984 16.55594 610 ft 0 kts 100°
2026-04-23 07:52 48.11988 16.55566 610 ft 4 kts 107°
2026-04-23 07:52 48.11999 16.55529 617 ft 4 kts 131°
2026-04-23 07:53 48.12017 16.55512 621 ft 3 kts 201°
2026-04-23 07:53 48.12024 16.55516 618 ft 0 kts 206°
2026-04-23 07:57 48.12022 16.55515 618 ft 1 kts 206°
2026-04-23 07:57 48.11998 16.55497 612 ft 6 kts 206°
2026-04-23 07:58 48.11948 16.55461 610 ft 10 kts 205°
2026-04-23 07:58 48.11868 16.55432 610 ft 14 kts 191°
2026-04-23 07:58 48.11790 16.55492 611 ft 14 kts 116°
2026-04-23 07:58 48.11739 16.55649 614 ft 18 kts 115°
2026-04-23 07:59 48.11685 16.55816 620 ft 17 kts 116°
2026-04-23 07:59 48.11620 16.56012 618 ft 25 kts 116°
2026-04-23 07:59 48.11541 16.56257 621 ft 27 kts 116°
2026-04-23 07:59 48.11460 16.56506 611 ft 27 kts 116°
2026-04-23 08:00 48.11378 16.56757 615 ft 27 kts 116°
2026-04-23 08:00 48.11297 16.57006 620 ft 28 kts 116°
2026-04-23 08:00 48.11210 16.57271 616 ft 29 kts 116°
2026-04-23 08:00 48.11137 16.57501 612 ft 10 kts 115°
2026-04-23 08:01 48.11111 16.57579 618 ft 9 kts 118°
2026-04-23 08:01 48.11069 16.57648 612 ft 10 kts 162°
2026-04-23 08:01 48.10983 16.57603 623 ft 14 kts 207°
2026-04-23 08:01 48.10921 16.57527 614 ft 10 kts 269°
2026-04-23 08:02 48.10948 16.57429 621 ft 10 kts 296°
2026-04-23 08:02 48.10997 16.57281 610 ft 35 kts 296°
2026-04-23 08:02 48.11203 16.56649 614 ft 98 kts 295°
2026-04-23 08:02 48.11578 16.55496 617 ft 147 kts 296°
2026-04-23 08:03 48.12037 16.54066 1124 ft 152 kts 295°
2026-04-23 08:03 48.12126 16.52481 1819 ft 163 kts 261°
2026-04-23 08:03 48.11426 16.50957 2093 ft 199 kts 224°
2026-04-23 08:03 48.10235 16.49676 2397 ft 221 kts 221°
2026-04-23 08:04 48.08902 16.48286 2726 ft 246 kts 222°
2026-04-23 08:04 48.07447 16.46741 3148 ft 264 kts 224°
2026-04-23 08:04 48.05999 16.45007 3884 ft 269 kts 226°
2026-04-23 08:04 48.04559 16.43174 4684 ft 273 kts 227°
2026-04-23 08:05 48.03122 16.41297 5481 ft 276 kts 227°
2026-04-23 08:05 48.01667 16.39381 6219 ft 282 kts 227°
2026-04-23 08:05 48.00182 16.37423 6949 ft 287 kts 226°
2026-04-23 08:05 47.98668 16.35434 7644 ft 293 kts 226°
2026-04-23 08:06 47.97138 16.33395 8333 ft 296 kts 231°
2026-04-23 08:06 47.95885 16.30972 9006 ft 294 kts 246°
2026-04-23 08:06 47.95087 16.28221 9676 ft 294 kts 256°
2026-04-23 08:06 47.94388 16.25314 10246 ft 305 kts 256°
2026-04-23 08:07 47.93648 16.22233 10414 ft 327 kts 256°
2026-04-23 08:07 47.92850 16.18927 10565 ft 350 kts 255°
2026-04-23 08:07 47.92004 16.15469 11032 ft 359 kts 255°
2026-04-23 08:07 47.91134 16.11952 11654 ft 364 kts 254°
2026-04-23 08:08 47.90247 16.08392 12276 ft 369 kts 254°
2026-04-23 08:08 47.89348 16.04785 12924 ft 373 kts 254°
2026-04-23 08:08 47.88432 16.01142 13537 ft 379 kts 252°
2026-04-23 08:08 47.87189 15.97630 14102 ft 389 kts 240°
2026-04-23 08:09 47.85464 15.94476 14655 ft 397 kts 227°
2026-04-23 08:09 47.83332 15.91814 15228 ft 402 kts 218°
2026-04-23 08:09 47.81092 15.89290 15761 ft 405 kts 218°
2026-04-23 08:09 47.78836 15.86748 16281 ft 409 kts 218°
2026-04-23 08:10 47.76560 15.84185 16852 ft 412 kts 218°
2026-04-23 08:10 47.74264 15.81598 17394 ft 416 kts 218°
2026-04-23 08:10 47.69618 15.76357 18468 ft 422 kts 217°
2026-04-23 08:11 47.67268 15.73708 18936 ft 425 kts 217°
2026-04-23 08:11 47.64905 15.71054 19420 ft 428 kts 217°
2026-04-23 08:11 47.62525 15.68387 19916 ft 430 kts 217°
2026-04-23 08:11 47.60162 15.65742 20397 ft 432 kts 217°
2026-04-23 08:12 47.57756 15.63051 20861 ft 435 kts 217°
2026-04-23 08:12 47.55334 15.60343 21312 ft 438 kts 217°
2026-04-23 08:12 47.52903 15.57602 21757 ft 441 kts 219°
2026-04-23 08:12 47.50689 15.54455 22187 ft 443 kts 230°
2026-04-23 08:13 47.48859 15.50784 22609 ft 444 kts 240°
2026-04-23 08:13 47.47469 15.46709 23007 ft 445 kts 251°
2026-04-23 08:13 47.46520 15.42361 23406 ft 446 kts 257°
2026-04-23 08:13 47.45670 15.37946 23799 ft 449 kts 257°
2026-04-23 08:14 47.44806 15.33499 24120 ft 452 kts 256°
2026-04-23 08:14 47.43928 15.29032 24451 ft 454 kts 256°
2026-04-23 08:14 47.43044 15.24544 24752 ft 457 kts 256°
2026-04-23 08:14 47.42152 15.20023 25058 ft 459 kts 256°
2026-04-23 08:15 47.41255 15.15490 25349 ft 461 kts 256°
2026-04-23 08:15 47.40355 15.10935 25636 ft 463 kts 256°
2026-04-23 08:15 47.39449 15.06359 25928 ft 466 kts 256°
2026-04-23 08:15 47.38535 15.01767 26242 ft 468 kts 256°
2026-04-23 08:16 47.37615 14.97149 26518 ft 470 kts 256°
2026-04-23 08:16 47.36690 14.92504 26808 ft 473 kts 256°
2026-04-23 08:16 47.35950 14.88785 27047 ft 475 kts 256°
2026-04-23 08:16 47.35016 14.84107 27334 ft 477 kts 256°
2026-04-23 08:17 47.34073 14.79406 27587 ft 479 kts 256°
2026-04-23 08:17 47.33122 14.74689 27879 ft 481 kts 256°
2026-04-23 08:17 47.32167 14.69959 28142 ft 483 kts 256°
2026-04-23 08:17 47.31203 14.65198 28384 ft 485 kts 256°
2026-04-23 08:18 47.30235 14.60432 28634 ft 487 kts 256°
2026-04-23 08:18 47.29260 14.55637 28882 ft 489 kts 256°
2026-04-23 08:18 47.28284 14.50833 29088 ft 491 kts 256°
2026-04-23 08:18 47.27315 14.46076 29307 ft 493 kts 256°
2026-04-23 08:19 47.26327 14.41233 29530 ft 494 kts 255°
2026-04-23 08:19 47.25331 14.36381 29735 ft 496 kts 255°
2026-04-23 08:19 47.24346 14.31502 29931 ft 497 kts 258°
2026-04-23 08:19 47.23696 14.26514 30108 ft 496 kts 267°
2026-04-23 08:20 47.23526 14.21472 30358 ft 492 kts 275°
2026-04-23 08:20 47.23785 14.16479 30576 ft 489 kts 279°
2026-04-23 08:20 47.24126 14.11503 30810 ft 489 kts 279°
2026-04-23 08:20 47.24459 14.06529 31043 ft 488 kts 279°
2026-04-23 08:21 47.24785 14.01554 31284 ft 488 kts 279°
2026-04-23 08:21 47.25105 13.96580 31499 ft 489 kts 279°
2026-04-23 08:21 47.25422 13.91602 31716 ft 489 kts 279°
2026-04-23 08:21 47.25732 13.86627 31953 ft 488 kts 279°
2026-04-23 08:22 47.26040 13.81650 32195 ft 488 kts 278°
2026-04-23 08:22 47.26339 13.76666 32434 ft 489 kts 276°
2026-04-23 08:22 47.26294 13.71649 32675 ft 493 kts 266°
2026-04-23 08:22 47.25728 13.66671 32918 ft 495 kts 257°
2026-04-23 08:23 47.24659 13.61854 33148 ft 496 kts 248°
2026-04-23 08:23 47.23200 13.57250 33376 ft 496 kts 245°
2026-04-23 08:23 47.21709 13.52672 33587 ft 496 kts 245°
2026-04-23 08:23 47.20222 13.48097 33829 ft 496 kts 244°
2026-04-23 08:24 47.18736 13.43526 34066 ft 495 kts 244°
2026-04-23 08:24 47.17254 13.38971 34298 ft 494 kts 244°
2026-04-23 08:24 47.15767 13.34417 34508 ft 494 kts 244°
2026-04-23 08:24 47.14278 13.29872 34691 ft 493 kts 244°
2026-04-23 08:25 47.12790 13.25341 34883 ft 492 kts 244°
2026-04-23 08:25 47.11304 13.20817 35092 ft 491 kts 244°
2026-04-23 08:25 47.09822 13.16303 35267 ft 491 kts 244°
2026-04-23 08:25 47.08355 13.11850 35316 ft 490 kts 244°
2026-04-23 08:26 47.05359 13.02807 35308 ft 489 kts 244°
2026-04-23 08:26 47.02403 12.93901 35312 ft 489 kts 244°
2026-04-23 08:27 46.99424 12.84957 35303 ft 489 kts 243°
2026-04-23 08:27 46.96440 12.76019 35297 ft 488 kts 243°
2026-04-23 08:28 46.93452 12.67105 35296 ft 488 kts 243°
2026-04-23 08:28 46.90451 12.58213 35310 ft 488 kts 243°
2026-04-23 08:29 46.87446 12.49315 35312 ft 488 kts 243°
2026-04-23 08:29 46.84444 12.40435 35316 ft 487 kts 243°
2026-04-23 08:30 46.81426 12.31566 35320 ft 488 kts 243°
2026-04-23 08:30 46.77766 12.23296 35319 ft 485 kts 231°
2026-04-23 08:31 46.73676 12.15459 35322 ft 486 kts 231°
2026-04-23 08:31 46.69585 12.07622 35324 ft 486 kts 231°
2026-04-23 08:32 46.66184 12.01114 35320 ft 486 kts 230°
2026-04-23 08:32 46.62087 11.93288 35314 ft 486 kts 231°
2026-04-23 08:33 46.57984 11.85483 35308 ft 486 kts 230°
2026-04-23 08:33 46.53878 11.77688 35298 ft 486 kts 230°
2026-04-23 08:34 46.49764 11.69905 35307 ft 485 kts 230°
2026-04-23 08:34 46.45646 11.62141 35317 ft 485 kts 230°
2026-04-23 08:35 46.41522 11.54389 35327 ft 485 kts 230°
2026-04-23 08:35 46.37395 11.46657 35336 ft 485 kts 230°
2026-04-23 08:36 46.33295 11.38991 35335 ft 484 kts 230°
2026-04-23 08:36 46.29177 11.31296 35286 ft 484 kts 230°
2026-04-23 08:37 46.25054 11.23621 35291 ft 483 kts 230°
2026-04-23 08:37 46.20924 11.15967 35289 ft 482 kts 229°
2026-04-23 08:38 46.16802 11.08345 35289 ft 482 kts 229°
2026-04-23 08:38 46.12680 11.00729 35284 ft 481 kts 229°
2026-04-23 08:39 46.08564 10.93152 35278 ft 480 kts 229°
2026-04-23 08:39 46.04439 10.85596 35274 ft 480 kts 229°
2026-04-23 08:40 46.00321 10.78063 35279 ft 479 kts 229°
2026-04-23 08:40 45.96203 10.70545 35279 ft 478 kts 229°
2026-04-23 08:41 45.92089 10.63054 35274 ft 477 kts 229°
2026-04-23 08:41 45.87977 10.55578 35279 ft 477 kts 229°
2026-04-23 08:42 45.83888 10.48163 35287 ft 476 kts 229°
2026-04-23 08:42 45.79770 10.40738 35288 ft 476 kts 229°
2026-04-23 08:43 45.75656 10.33328 35287 ft 475 kts 229°
2026-04-23 08:43 45.71538 10.25935 35287 ft 474 kts 229°
2026-04-23 08:44 45.67418 10.18562 35289 ft 474 kts 229°
2026-04-23 08:44 45.63298 10.11204 35288 ft 474 kts 229°
2026-04-23 08:45 45.59178 10.03848 35292 ft 474 kts 229°
2026-04-23 08:45 45.55058 9.96521 35306 ft 473 kts 229°
2026-04-23 08:46 45.50924 9.89203 35308 ft 473 kts 229°
2026-04-23 08:46 45.46798 9.81906 35307 ft 473 kts 230°
2026-04-23 08:47 45.42695 9.74657 35303 ft 473 kts 230°
2026-04-23 08:47 45.38557 9.67376 35304 ft 473 kts 230°
2026-04-23 08:48 45.34416 9.60113 35307 ft 473 kts 230°
2026-04-23 08:48 45.30272 9.52861 35323 ft 473 kts 230°
2026-04-23 08:49 45.26121 9.45611 35323 ft 473 kts 230°
2026-04-23 08:49 45.21971 9.38376 35324 ft 473 kts 230°
2026-04-23 08:50 45.17806 9.31159 35324 ft 472 kts 230°
2026-04-23 08:50 45.13651 9.23957 35312 ft 472 kts 231°
2026-04-23 08:51 45.09497 9.16777 35310 ft 471 kts 231°
2026-04-23 08:51 45.05342 9.09612 35304 ft 471 kts 231°
2026-04-23 08:52 45.01192 9.02462 35300 ft 470 kts 231°
2026-04-23 08:52 44.97040 8.95341 35300 ft 469 kts 231°
2026-04-23 08:53 44.92882 8.88233 35300 ft 469 kts 232°
2026-04-23 08:53 44.88733 8.81150 35305 ft 468 kts 232°
2026-04-23 08:54 44.84602 8.74126 35308 ft 468 kts 232°
2026-04-23 08:54 44.80452 8.67075 35314 ft 467 kts 232°
2026-04-23 08:55 44.76301 8.60038 35320 ft 467 kts 232°
2026-04-23 08:55 44.72151 8.53026 35322 ft 466 kts 233°
2026-04-23 08:56 44.67998 8.46030 35316 ft 466 kts 233°
2026-04-23 08:56 44.63850 8.39053 35314 ft 465 kts 233°
2026-04-23 08:57 44.59701 8.32097 35311 ft 465 kts 233°
2026-04-23 08:57 44.55549 8.25158 35306 ft 464 kts 233°
2026-04-23 08:58 44.51400 8.18233 35303 ft 464 kts 233°
2026-04-23 08:58 44.47253 8.11325 35303 ft 463 kts 233°
2026-04-23 08:59 44.43104 8.04436 35299 ft 463 kts 234°
2026-04-23 08:59 44.38984 7.97605 35305 ft 462 kts 234°
2026-04-23 09:00 44.34835 7.90740 35306 ft 462 kts 234°
2026-04-23 09:00 44.30680 7.83888 35301 ft 462 kts 234°
2026-04-23 09:01 44.26430 7.77158 35301 ft 465 kts 227°
2026-04-23 09:01 44.21573 7.71163 35299 ft 466 kts 226°
2026-04-23 09:02 44.16709 7.65186 35291 ft 465 kts 226°
2026-04-23 09:02 44.12225 7.58812 35295 ft 458 kts 234°
2026-04-23 09:03 44.08044 7.52109 35287 ft 458 kts 235°
2026-04-23 09:03 44.03862 7.45421 35285 ft 458 kts 235°
2026-04-23 09:04 43.99711 7.38797 35291 ft 457 kts 235°
2026-04-23 09:04 43.95526 7.32148 35291 ft 457 kts 235°
2026-04-23 09:05 43.91338 7.25525 35290 ft 456 kts 235°
2026-04-23 09:05 43.87163 7.18916 35294 ft 455 kts 235°
2026-04-23 09:06 43.82990 7.12320 35299 ft 455 kts 235°
2026-04-23 09:06 43.78817 7.05752 35298 ft 453 kts 235°
2026-04-23 09:07 43.74651 6.99200 35299 ft 453 kts 236°
2026-04-23 09:07 43.71258 6.92077 35296 ft 437 kts 253°
2026-04-23 09:08 43.68969 6.84361 35299 ft 434 kts 255°
2026-04-23 09:08 43.66695 6.76647 35300 ft 433 kts 255°
2026-04-23 09:09 43.64421 6.68946 35295 ft 433 kts 255°
2026-04-23 09:09 43.62143 6.61275 35294 ft 432 kts 255°
2026-04-23 09:10 43.58726 6.49793 35278 ft 431 kts 255°
2026-04-23 09:11 43.56458 6.42212 35279 ft 430 kts 255°
2026-04-23 09:11 43.54170 6.34592 35273 ft 430 kts 255°
2026-04-23 09:12 43.51885 6.26985 35275 ft 429 kts 255°
2026-04-23 09:12 43.49604 6.19399 35279 ft 428 kts 255°
2026-04-23 09:13 43.47317 6.11826 35274 ft 428 kts 255°
2026-04-23 09:13 43.45024 6.04272 35272 ft 427 kts 255°
2026-04-23 09:14 43.42732 5.96741 35271 ft 426 kts 255°
2026-04-23 09:14 43.40435 5.89228 35267 ft 426 kts 255°
2026-04-23 09:15 43.38139 5.81724 35267 ft 425 kts 255°
2026-04-23 09:15 43.35845 5.74238 35261 ft 424 kts 255°
2026-04-23 09:16 43.33545 5.66765 35255 ft 425 kts 255°
2026-04-23 09:16 43.31255 5.59355 35252 ft 424 kts 255°
2026-04-23 09:17 43.28947 5.51903 35253 ft 424 kts 255°
2026-04-23 09:17 43.26634 5.44446 35254 ft 424 kts 254°
2026-04-23 09:18 43.24317 5.37002 35254 ft 424 kts 254°
2026-04-23 09:18 43.21998 5.29567 35245 ft 424 kts 254°
2026-04-23 09:19 43.19675 5.22130 35251 ft 424 kts 254°
2026-04-23 09:19 43.17346 5.14700 35252 ft 425 kts 254°
2026-04-23 09:20 43.15003 5.07271 35246 ft 425 kts 253°
2026-04-23 09:20 43.12653 4.99849 35247 ft 425 kts 253°
2026-04-23 09:21 43.10320 4.92468 35256 ft 425 kts 253°
2026-04-23 09:21 43.07961 4.85047 35256 ft 426 kts 253°
2026-04-23 09:22 43.05178 4.77842 35257 ft 437 kts 240°
2026-04-23 09:22 43.00815 4.71862 35252 ft 449 kts 228°
2026-04-23 09:23 42.96123 4.66220 35247 ft 450 kts 228°
2026-04-23 09:23 42.91441 4.60564 35252 ft 450 kts 228°
2026-04-23 09:24 42.86755 4.54915 35250 ft 450 kts 228°
2026-04-23 09:24 42.82058 4.49278 35250 ft 450 kts 228°
2026-04-23 09:25 42.77362 4.43654 35252 ft 450 kts 228°
2026-04-23 09:25 42.72666 4.38030 35248 ft 450 kts 228°
2026-04-23 09:26 42.67968 4.32413 35250 ft 450 kts 227°
2026-04-23 09:26 42.63265 4.26815 35244 ft 450 kts 227°
2026-04-23 09:27 42.59348 4.22169 35241 ft 450 kts 227°
2026-04-23 09:27 42.54639 4.16588 35238 ft 449 kts 227°
2026-04-23 09:28 42.49937 4.11010 35238 ft 449 kts 227°
2026-04-23 09:28 42.45230 4.05444 35236 ft 449 kts 227°
2026-04-23 09:29 42.40525 3.99886 35235 ft 449 kts 227°
2026-04-23 09:29 42.35816 3.94346 35234 ft 448 kts 227°
2026-04-23 09:30 42.31106 3.88818 35229 ft 448 kts 227°
2026-04-23 09:30 42.26464 3.83219 35234 ft 443 kts 233°
2026-04-23 09:31 42.22781 3.76683 35231 ft 436 kts 240°
2026-04-23 09:31 42.19273 3.70002 35235 ft 436 kts 240°
2026-04-23 09:32 42.15749 3.63332 35241 ft 437 kts 240°
2026-04-23 09:32 42.12241 3.56723 35240 ft 436 kts 240°
2026-04-23 09:33 42.08711 3.50077 35237 ft 436 kts 240°
2026-04-23 09:33 42.05190 3.43439 35238 ft 436 kts 240°
2026-04-23 09:34 42.01666 3.36809 35235 ft 436 kts 240°
2026-04-23 09:34 41.98129 3.30188 35237 ft 436 kts 240°
2026-04-23 09:35 41.94590 3.23581 35238 ft 436 kts 240°
2026-04-23 09:35 41.91045 3.16976 35251 ft 436 kts 240°
2026-04-23 09:36 41.87504 3.10384 35240 ft 436 kts 239°
2026-04-23 09:36 41.83958 3.03797 35241 ft 435 kts 239°
2026-04-23 09:37 41.80408 2.97221 35236 ft 435 kts 239°
2026-04-23 09:37 41.76883 2.90693 35237 ft 435 kts 239°
2026-04-23 09:38 41.73330 2.84134 35234 ft 435 kts 239°
2026-04-23 09:38 41.69766 2.77579 35235 ft 436 kts 239°
2026-04-23 09:39 41.66159 2.71062 35231 ft 436 kts 238°
2026-04-23 09:39 41.62419 2.64658 35225 ft 437 kts 237°
2026-04-23 09:40 41.58645 2.58281 35227 ft 437 kts 237°
2026-04-23 09:40 41.54893 2.51893 35221 ft 437 kts 237°
2026-04-23 09:41 41.51162 2.45490 35218 ft 437 kts 237°
2026-04-23 09:41 41.47424 2.39103 35216 ft 437 kts 237°
2026-04-23 09:42 41.43890 2.33093 35213 ft 437 kts 237°
2026-04-23 09:42 41.40135 2.26737 35214 ft 437 kts 237°
2026-04-23 09:43 41.36382 2.20372 35214 ft 437 kts 237°
2026-04-23 09:43 41.32628 2.14013 35210 ft 437 kts 237°
2026-04-23 09:44 41.28811 2.07726 35209 ft 438 kts 234°
2026-04-23 09:44 41.24756 2.01721 35209 ft 440 kts 232°
2026-04-23 09:45 41.20599 1.95769 35205 ft 439 kts 232°
2026-04-23 09:45 41.16485 1.89774 35211 ft 439 kts 233°
2026-04-23 09:46 41.12415 1.83747 35212 ft 439 kts 233°
2026-04-23 09:46 41.08336 1.77732 35207 ft 438 kts 233°
2026-04-23 09:47 41.04252 1.71736 35210 ft 438 kts 232°
2026-04-23 09:47 41.00168 1.65740 35209 ft 438 kts 232°
2026-04-23 09:48 40.96082 1.59758 35205 ft 438 kts 232°
2026-04-23 09:48 40.91986 1.53798 35204 ft 438 kts 232°
2026-04-23 09:49 40.87888 1.47844 35206 ft 438 kts 232°
2026-04-23 09:49 40.83795 1.41896 35201 ft 437 kts 232°
2026-04-23 09:50 40.79706 1.35955 35200 ft 437 kts 232°
2026-04-23 09:50 40.75614 1.30029 35197 ft 437 kts 232°
2026-04-23 09:51 40.71517 1.24114 35195 ft 436 kts 232°
2026-04-23 09:51 40.67451 1.18248 35194 ft 436 kts 232°
2026-04-23 09:52 40.63365 1.12352 35196 ft 436 kts 232°
2026-04-23 09:52 40.59277 1.06476 35190 ft 435 kts 231°
2026-04-23 09:53 40.55183 1.00610 35189 ft 435 kts 231°
2026-04-23 09:53 40.51095 0.94758 35189 ft 434 kts 231°
2026-04-23 09:54 40.47000 0.88918 35189 ft 434 kts 231°
2026-04-23 09:54 40.42909 0.83096 35190 ft 434 kts 231°
2026-04-23 09:55 40.38817 0.77276 35192 ft 433 kts 231°
2026-04-23 09:55 40.34733 0.71464 35187 ft 433 kts 231°
2026-04-23 09:56 40.30640 0.65673 35190 ft 433 kts 231°
2026-04-23 09:56 40.26541 0.59894 35192 ft 433 kts 231°
2026-04-23 09:57 40.22477 0.54153 35193 ft 433 kts 231°
2026-04-23 09:57 40.18355 0.48352 35193 ft 432 kts 230°
2026-04-23 09:58 40.14285 0.42635 35198 ft 432 kts 230°
2026-04-23 09:58 40.10189 0.36892 35202 ft 432 kts 230°
2026-04-23 09:59 40.06097 0.31155 35206 ft 432 kts 230°
2026-04-23 09:59 40.01997 0.25428 35202 ft 431 kts 230°
2026-04-23 10:00 39.97899 0.19717 35202 ft 431 kts 230°
2026-04-23 10:00 39.93801 0.14012 35192 ft 431 kts 230°
2026-04-23 10:01 39.89701 0.08311 35192 ft 431 kts 230°
2026-04-23 10:01 39.85607 0.02621 35197 ft 431 kts 230°
2026-04-23 10:02 39.81508 -0.03062 35198 ft 430 kts 230°
2026-04-23 10:02 39.77409 -0.08730 35194 ft 430 kts 230°
2026-04-23 10:03 39.73311 -0.14382 35192 ft 430 kts 230°
2026-04-23 10:03 39.69215 -0.20025 35196 ft 429 kts 229°
2026-04-23 10:04 39.65144 -0.25616 35192 ft 429 kts 229°
2026-04-23 10:04 39.61043 -0.31241 35199 ft 429 kts 229°
2026-04-23 10:05 39.56939 -0.36860 35201 ft 429 kts 229°
2026-04-23 10:05 39.52835 -0.42470 35203 ft 429 kts 229°
2026-04-23 10:06 39.48583 -0.47893 35205 ft 431 kts 220°
2026-04-23 10:06 39.43415 -0.51901 35202 ft 435 kts 211°
2026-04-23 10:07 39.38088 -0.55602 35195 ft 435 kts 211°
2026-04-23 10:07 39.32760 -0.59306 35195 ft 435 kts 211°
2026-04-23 10:08 39.27427 -0.63007 35187 ft 435 kts 211°
2026-04-23 10:08 39.22099 -0.66697 35185 ft 435 kts 211°
2026-04-23 10:09 39.14138 -0.72205 35175 ft 435 kts 211°
2026-04-23 10:09 39.08808 -0.75884 35175 ft 435 kts 211°
2026-04-23 10:10 39.03474 -0.79557 35168 ft 435 kts 211°
2026-04-23 10:10 38.98143 -0.83232 35165 ft 435 kts 211°
2026-04-23 10:11 38.92807 -0.86902 35162 ft 435 kts 211°
2026-04-23 10:11 38.87467 -0.90555 35157 ft 435 kts 211°
2026-04-23 10:12 38.82122 -0.94203 35153 ft 435 kts 211°
2026-04-23 10:12 38.76783 -0.97850 35152 ft 435 kts 211°
2026-04-23 10:13 38.71436 -1.01501 35148 ft 435 kts 211°
2026-04-23 10:13 38.66092 -1.05138 35144 ft 435 kts 211°
2026-04-23 10:14 38.60781 -1.08744 35133 ft 435 kts 211°
2026-04-23 10:14 38.55429 -1.12362 35131 ft 435 kts 211°
2026-04-23 10:15 38.50083 -1.15975 35119 ft 435 kts 211°
2026-04-23 10:15 38.44736 -1.19597 35121 ft 435 kts 211°
2026-04-23 10:16 38.39387 -1.23216 35114 ft 435 kts 211°
2026-04-23 10:16 38.34037 -1.26822 35113 ft 435 kts 211°
2026-04-23 10:17 38.28687 -1.30423 35110 ft 435 kts 211°
2026-04-23 10:17 38.23333 -1.34013 35113 ft 435 kts 210°
2026-04-23 10:18 38.17981 -1.37589 35111 ft 435 kts 210°
2026-04-23 10:18 38.12635 -1.41170 35108 ft 434 kts 211°
2026-04-23 10:19 38.07283 -1.44744 35110 ft 434 kts 210°
2026-04-23 10:19 38.01931 -1.48318 35111 ft 434 kts 210°
2026-04-23 10:20 37.96583 -1.51880 35107 ft 434 kts 210°
2026-04-23 10:20 37.92130 -1.54830 35105 ft 434 kts 210°
2026-04-23 10:21 37.86771 -1.58361 35098 ft 434 kts 210°
2026-04-23 10:21 37.81396 -1.61852 35094 ft 434 kts 210°
2026-04-23 10:22 37.76019 -1.65332 35086 ft 434 kts 210°
2026-04-23 10:22 37.70652 -1.68815 35087 ft 434 kts 210°
2026-04-23 10:23 37.65286 -1.72295 35082 ft 433 kts 210°
2026-04-23 10:23 37.59922 -1.75766 35079 ft 433 kts 210°
2026-04-23 10:24 37.54586 -1.79204 35078 ft 433 kts 210°
2026-04-23 10:24 37.49218 -1.82661 35078 ft 434 kts 210°
2026-04-23 10:25 37.43851 -1.86116 35078 ft 433 kts 210°
2026-04-23 10:25 37.38484 -1.89567 35078 ft 433 kts 210°
2026-04-23 10:26 37.33121 -1.93011 35077 ft 433 kts 210°
2026-04-23 10:26 37.27755 -1.96446 35074 ft 433 kts 210°
2026-04-23 10:27 37.22386 -1.99887 35073 ft 433 kts 210°
2026-04-23 10:27 37.17073 -2.03434 35077 ft 433 kts 211°
2026-04-23 10:28 37.11776 -2.07023 35073 ft 433 kts 211°
2026-04-23 10:28 37.06460 -2.10585 35057 ft 433 kts 211°
2026-04-23 10:29 37.01172 -2.14108 35045 ft 433 kts 211°
2026-04-23 10:29 36.95852 -2.17636 35030 ft 433 kts 210°
2026-04-23 10:30 36.90526 -2.21169 35021 ft 433 kts 211°
2026-04-23 10:30 36.85204 -2.24686 35013 ft 433 kts 210°
2026-04-23 10:31 36.80286 -2.28928 35003 ft 429 kts 221°
2026-04-23 10:31 36.75621 -2.33574 35004 ft 429 kts 221°
2026-04-23 10:32 36.70938 -2.38207 35007 ft 430 kts 220°
2026-04-23 10:32 36.66247 -2.42832 35020 ft 430 kts 221°
2026-04-23 10:33 36.61562 -2.47459 35027 ft 430 kts 221°
2026-04-23 10:33 36.56875 -2.52080 35036 ft 430 kts 221°
2026-04-23 10:34 36.52183 -2.56691 35042 ft 430 kts 221°
2026-04-23 10:34 36.47488 -2.61301 35045 ft 430 kts 221°
2026-04-23 10:35 36.42794 -2.65900 35044 ft 430 kts 221°
2026-04-23 10:35 36.38099 -2.70498 35048 ft 430 kts 221°
2026-04-23 10:36 36.33401 -2.75092 35050 ft 430 kts 221°
2026-04-23 10:36 36.28704 -2.79673 35052 ft 430 kts 221°
2026-04-23 10:37 36.24008 -2.84250 35049 ft 430 kts 221°
2026-04-23 10:37 36.19309 -2.88826 35044 ft 430 kts 221°
2026-04-23 10:38 36.14637 -2.93357 35043 ft 430 kts 220°
2026-04-23 10:38 36.09932 -2.97919 35047 ft 430 kts 221°
2026-04-23 10:39 36.05223 -3.02476 35043 ft 430 kts 221°
2026-04-23 10:39 36.00512 -3.07026 35044 ft 430 kts 221°
2026-04-23 10:40 35.95800 -3.11578 35042 ft 430 kts 221°
2026-04-23 10:40 35.91088 -3.16124 35041 ft 430 kts 221°
2026-04-23 10:41 35.86366 -3.20664 35031 ft 430 kts 221°
2026-04-23 10:41 35.81641 -3.25197 35032 ft 431 kts 220°
2026-04-23 10:42 35.76882 -3.29682 35026 ft 431 kts 220°
2026-04-23 10:42 35.72113 -3.34143 35025 ft 431 kts 220°
2026-04-23 10:43 35.67373 -3.38582 35019 ft 431 kts 220°
2026-04-23 10:43 35.62604 -3.43043 35017 ft 431 kts 220°
2026-04-23 10:44 35.57833 -3.47508 35013 ft 431 kts 220°
2026-04-23 10:44 35.53059 -3.51977 35018 ft 432 kts 220°
2026-04-23 10:45 35.48274 -3.56443 35013 ft 432 kts 220°
2026-04-23 10:45 35.43491 -3.60909 35015 ft 432 kts 220°
2026-04-23 10:46 35.38699 -3.65360 35015 ft 432 kts 220°
2026-04-23 10:46 35.33898 -3.69815 35021 ft 433 kts 220°
2026-04-23 10:47 35.29097 -3.74270 35023 ft 433 kts 220°
2026-04-23 10:47 35.24287 -3.78722 35026 ft 434 kts 220°
2026-04-23 10:48 35.19474 -3.83174 35029 ft 434 kts 221°
2026-04-23 10:48 35.14720 -3.87625 35022 ft 433 kts 221°
2026-04-23 10:49 35.09977 -3.92166 35017 ft 433 kts 222°
2026-04-23 10:49 35.05239 -3.96706 35013 ft 433 kts 221°
2026-04-23 10:50 35.00488 -4.01223 35008 ft 433 kts 221°
2026-04-23 10:50 34.95729 -4.05729 35002 ft 433 kts 221°
2026-04-23 10:51 34.90965 -4.10237 34998 ft 434 kts 221°
2026-04-23 10:51 34.86197 -4.14746 34996 ft 434 kts 221°
2026-04-23 10:52 34.81417 -4.19248 34999 ft 434 kts 221°
2026-04-23 10:52 34.76642 -4.23750 34999 ft 434 kts 222°
2026-04-23 10:53 34.71865 -4.28252 35006 ft 435 kts 221°
2026-04-23 10:53 34.67110 -4.32719 35008 ft 435 kts 221°
2026-04-23 10:54 34.62286 -4.37235 35013 ft 435 kts 221°
2026-04-23 10:54 34.57526 -4.41693 35014 ft 435 kts 221°
2026-04-23 10:55 34.52733 -4.46184 35016 ft 435 kts 221°
2026-04-23 10:55 34.47940 -4.50662 35017 ft 435 kts 221°
2026-04-23 10:56 34.43142 -4.55132 35018 ft 435 kts 221°
2026-04-23 10:56 34.38343 -4.59591 35018 ft 435 kts 221°
2026-04-23 10:57 34.33530 -4.64045 35024 ft 436 kts 221°
2026-04-23 10:57 34.28700 -4.68477 35032 ft 436 kts 221°
2026-04-23 10:58 34.23867 -4.72913 35039 ft 436 kts 221°
2026-04-23 10:58 34.19037 -4.77349 35049 ft 436 kts 221°
2026-04-23 10:59 34.14235 -4.81751 35060 ft 436 kts 221°
2026-04-23 10:59 34.09397 -4.86169 35065 ft 436 kts 221°
2026-04-23 11:00 34.04552 -4.90590 35069 ft 436 kts 221°
2026-04-23 11:00 33.99714 -4.95003 35079 ft 436 kts 221°
2026-04-23 11:01 33.94871 -4.99409 35089 ft 436 kts 221°
2026-04-23 11:01 33.90008 -5.03795 35090 ft 437 kts 220°
2026-04-23 11:02 33.85077 -5.08060 35081 ft 437 kts 219°
2026-04-23 11:02 33.80126 -5.12301 35077 ft 437 kts 219°
2026-04-23 11:03 33.75188 -5.16554 35068 ft 436 kts 220°
2026-04-23 11:03 33.70265 -5.20810 35056 ft 436 kts 220°
2026-04-23 11:04 33.65374 -5.25044 35058 ft 436 kts 220°
2026-04-23 11:04 33.60455 -5.29289 35047 ft 436 kts 219°
2026-04-23 11:05 33.55530 -5.33519 35046 ft 435 kts 219°
2026-04-23 11:05 33.50607 -5.37741 35040 ft 435 kts 219°
2026-04-23 11:06 33.43235 -5.44064 35031 ft 434 kts 220°
2026-04-23 11:07 33.38323 -5.48277 35026 ft 434 kts 219°
2026-04-23 11:07 33.33407 -5.52470 35030 ft 434 kts 219°
2026-04-23 11:08 33.28495 -5.56654 35024 ft 433 kts 219°
2026-04-23 11:08 33.23585 -5.60836 35023 ft 433 kts 219°
2026-04-23 11:09 33.18680 -5.65009 35021 ft 433 kts 219°
2026-04-23 11:09 33.13765 -5.69178 35021 ft 433 kts 219°
2026-04-23 11:10 33.08858 -5.73338 35019 ft 432 kts 219°
2026-04-23 11:10 33.03953 -5.77489 35020 ft 432 kts 219°
2026-04-23 11:11 32.99086 -5.81606 35025 ft 432 kts 219°
2026-04-23 11:11 32.94181 -5.85743 35023 ft 432 kts 219°
2026-04-23 11:12 32.89281 -5.89870 35026 ft 431 kts 219°
2026-04-23 11:12 32.84385 -5.93993 35029 ft 431 kts 219°
2026-04-23 11:13 32.79490 -5.98117 35034 ft 431 kts 219°
2026-04-23 11:13 32.74598 -6.02224 35031 ft 431 kts 219°
2026-04-23 11:14 32.69705 -6.06331 35036 ft 430 kts 219°
2026-04-23 11:14 32.64852 -6.10399 35037 ft 430 kts 219°
2026-04-23 11:15 32.59968 -6.14495 35043 ft 430 kts 219°
2026-04-23 11:15 32.55098 -6.18588 35041 ft 429 kts 219°
2026-04-23 11:16 32.50226 -6.22671 35039 ft 429 kts 219°
2026-04-23 11:16 32.45349 -6.26741 35043 ft 428 kts 219°
2026-04-23 11:17 32.41145 -6.31588 35038 ft 419 kts 238°
2026-04-23 11:17 32.38326 -6.37554 35036 ft 415 kts 245°
2026-04-23 11:18 32.36134 -6.42605 35039 ft 415 kts 245°
2026-04-23 11:18 32.33476 -6.48666 35039 ft 415 kts 245°
2026-04-23 11:19 32.30822 -6.54723 35042 ft 415 kts 245°
2026-04-23 11:19 32.28177 -6.60780 35039 ft 414 kts 245°
2026-04-23 11:20 32.25526 -6.66824 35039 ft 414 kts 244°
2026-04-23 11:20 32.22873 -6.72852 35038 ft 414 kts 244°
2026-04-23 11:21 32.20223 -6.78877 35045 ft 413 kts 244°
2026-04-23 11:21 32.17574 -6.84890 35041 ft 413 kts 244°
2026-04-23 11:22 32.14940 -6.90849 35044 ft 412 kts 244°
2026-04-23 11:22 32.12294 -6.96844 35039 ft 411 kts 244°
2026-04-23 11:23 32.09650 -7.02822 35034 ft 411 kts 244°
2026-04-23 11:23 32.07004 -7.08787 35037 ft 410 kts 244°
2026-04-23 11:24 32.04356 -7.14740 35037 ft 410 kts 244°
2026-04-23 11:24 32.01709 -7.20684 35032 ft 409 kts 244°
2026-04-23 11:25 31.99067 -7.26617 35026 ft 409 kts 244°
2026-04-23 11:25 31.96427 -7.32540 35028 ft 408 kts 244°
2026-04-23 11:26 31.93781 -7.38449 35027 ft 408 kts 244°
2026-04-23 11:26 31.91132 -7.44346 35027 ft 407 kts 244°
2026-04-23 11:27 31.88510 -7.50201 35027 ft 407 kts 244°
2026-04-23 11:27 31.85872 -7.56091 35027 ft 407 kts 244°
2026-04-23 11:28 31.83225 -7.61956 35032 ft 402 kts 243°
2026-04-23 11:28 31.80624 -7.67701 35025 ft 396 kts 243°
2026-04-23 11:29 31.78040 -7.73418 35022 ft 396 kts 243°
2026-04-23 11:29 31.75458 -7.79128 35022 ft 395 kts 243°
2026-04-23 11:30 31.72873 -7.84830 35028 ft 395 kts 243°
2026-04-23 11:30 31.70288 -7.90526 35035 ft 395 kts 243°
2026-04-23 11:31 31.67703 -7.96212 35037 ft 394 kts 243°
2026-04-23 11:31 31.65112 -8.01889 35041 ft 394 kts 243°
2026-04-23 11:32 31.62516 -8.07558 35042 ft 394 kts 242°
2026-04-23 11:32 31.59057 -8.12539 35040 ft 398 kts 224°
2026-04-23 11:33 31.54855 -8.16775 35034 ft 398 kts 224°
2026-04-23 11:33 31.50684 -8.20980 35029 ft 398 kts 224°
2026-04-23 11:34 31.46487 -8.25205 35029 ft 398 kts 224°
2026-04-23 11:34 31.42288 -8.29434 35027 ft 398 kts 224°
2026-04-23 11:35 31.38090 -8.33655 35025 ft 398 kts 224°
2026-04-23 11:35 31.33890 -8.37870 35029 ft 398 kts 224°
2026-04-23 11:36 31.29687 -8.42071 35027 ft 397 kts 224°
2026-04-23 11:36 31.25493 -8.46273 35035 ft 397 kts 224°
2026-04-23 11:37 31.21311 -8.50470 35040 ft 396 kts 224°
2026-04-23 11:37 31.17134 -8.54664 35039 ft 395 kts 224°
2026-04-23 11:38 31.12973 -8.58845 35037 ft 394 kts 224°
2026-04-23 11:38 31.08815 -8.63021 35031 ft 394 kts 224°
2026-04-23 11:39 31.04657 -8.67185 35034 ft 394 kts 224°
2026-04-23 11:39 31.00526 -8.71313 35026 ft 393 kts 224°
2026-04-23 11:40 30.96375 -8.75463 35028 ft 393 kts 224°
2026-04-23 11:40 30.92218 -8.79609 35021 ft 393 kts 224°
2026-04-23 11:41 30.88064 -8.83744 35014 ft 393 kts 224°
2026-04-23 11:41 30.83889 -8.87845 35004 ft 392 kts 224°
2026-04-23 11:42 30.79712 -8.91915 35002 ft 392 kts 224°
2026-04-23 11:42 30.75540 -8.95980 35005 ft 391 kts 224°
2026-04-23 11:43 30.71376 -9.00047 35008 ft 391 kts 224°
2026-04-23 11:43 30.67209 -9.04113 35012 ft 391 kts 224°
2026-04-23 11:44 30.63042 -9.08163 35013 ft 390 kts 224°
2026-04-23 11:44 30.58922 -9.12201 35016 ft 390 kts 224°
2026-04-23 11:45 30.54788 -9.16270 35018 ft 390 kts 224°
2026-04-23 11:45 30.50645 -9.20329 35022 ft 390 kts 224°
2026-04-23 11:46 30.46496 -9.24386 35034 ft 390 kts 224°
2026-04-23 11:46 30.42349 -9.28434 35038 ft 390 kts 224°
2026-04-23 11:47 30.38203 -9.32474 35041 ft 389 kts 224°
2026-04-23 11:47 30.34077 -9.36527 35041 ft 387 kts 227°
2026-04-23 11:48 30.30954 -9.41481 35041 ft 380 kts 246°
2026-04-23 11:48 30.28767 -9.47053 35039 ft 381 kts 246°
2026-04-23 11:49 30.26559 -9.52616 35042 ft 380 kts 246°
2026-04-23 11:49 30.24352 -9.58176 35037 ft 380 kts 246°
2026-04-23 11:50 30.22169 -9.63697 35037 ft 380 kts 246°
2026-04-23 11:50 30.19972 -9.69249 35036 ft 379 kts 246°
2026-04-23 11:51 30.17769 -9.74787 35036 ft 379 kts 246°
2026-04-23 11:51 30.15568 -9.80320 35036 ft 379 kts 246°
2026-04-23 11:52 30.13361 -9.85854 35040 ft 379 kts 246°
2026-04-23 11:52 30.11153 -9.91382 35042 ft 379 kts 246°
2026-04-23 11:53 30.08944 -9.96913 35042 ft 379 kts 246°
2026-04-23 11:53 30.06734 -10.02444 35050 ft 379 kts 245°
2026-04-23 11:54 30.04513 -10.07969 35048 ft 379 kts 245°
2026-04-23 11:54 30.02292 -10.13489 35052 ft 379 kts 245°
2026-04-23 11:55 30.00074 -10.19012 35048 ft 379 kts 246°
2026-04-23 11:55 29.97854 -10.24531 35050 ft 379 kts 245°
2026-04-23 11:56 29.95621 -10.30049 35052 ft 380 kts 245°
2026-04-23 11:56 29.93408 -10.35531 35054 ft 380 kts 245°
2026-04-23 11:57 29.91179 -10.41051 35059 ft 380 kts 245°
2026-04-23 11:57 29.88944 -10.46567 35057 ft 380 kts 245°
2026-04-23 11:58 29.86708 -10.52076 35056 ft 380 kts 245°
2026-04-23 11:58 29.84464 -10.57590 35057 ft 380 kts 245°
2026-04-23 11:59 29.82220 -10.63102 35058 ft 380 kts 245°
2026-04-23 11:59 29.79977 -10.68609 35058 ft 380 kts 245°
2026-04-23 12:00 29.77779 -10.73994 35061 ft 380 kts 245°
2026-04-23 12:00 29.75525 -10.79497 35056 ft 380 kts 245°
2026-04-23 12:01 29.73276 -10.84998 35059 ft 380 kts 245°
2026-04-23 12:01 29.71022 -10.90496 35074 ft 380 kts 245°
2026-04-23 12:02 29.68766 -10.95986 35071 ft 380 kts 245°
2026-04-23 12:02 29.66508 -11.01480 35076 ft 380 kts 245°
2026-04-23 12:03 29.64249 -11.06975 35069 ft 380 kts 245°
2026-04-23 12:03 29.62004 -11.12425 35067 ft 380 kts 245°
2026-04-23 12:04 29.59739 -11.17911 35073 ft 380 kts 245°
2026-04-23 12:04 29.57467 -11.23390 35071 ft 380 kts 245°
2026-04-23 12:05 29.55196 -11.28868 35074 ft 380 kts 245°
2026-04-23 12:05 29.52932 -11.34346 35074 ft 380 kts 245°
2026-04-23 12:06 29.50656 -11.39818 35071 ft 380 kts 245°
2026-04-23 12:06 29.47244 -11.48017 35072 ft 380 kts 245°
2026-04-23 12:07 29.45021 -11.53351 35072 ft 380 kts 245°
2026-04-23 12:07 29.42736 -11.58818 35070 ft 380 kts 245°
2026-04-23 12:08 29.40452 -11.64280 35070 ft 380 kts 245°
2026-04-23 12:08 29.38168 -11.69738 35071 ft 380 kts 245°
2026-04-23 12:09 29.35878 -11.75193 35072 ft 380 kts 245°
2026-04-23 12:09 29.33590 -11.80649 35072 ft 380 kts 245°
2026-04-23 12:10 29.31299 -11.86105 35072 ft 380 kts 245°
2026-04-23 12:10 29.29005 -11.91556 35073 ft 380 kts 245°
2026-04-23 12:11 29.27098 -11.96082 35070 ft 380 kts 245°
2026-04-23 12:11 29.24793 -12.01533 35073 ft 380 kts 245°
2026-04-23 12:12 29.22114 -12.07856 35074 ft 380 kts 245°
2026-04-23 12:12 29.19816 -12.13297 35073 ft 380 kts 245°
2026-04-23 12:13 29.17891 -12.17860 35078 ft 380 kts 245°
2026-04-23 12:13 29.15598 -12.23259 35081 ft 380 kts 245°
2026-04-23 12:14 29.13278 -12.28693 35083 ft 380 kts 245°
2026-04-23 12:14 29.10966 -12.34126 35016 ft 381 kts 245°
2026-04-23 12:15 29.09418 -12.37774 34699 ft 382 kts 245°
2026-04-23 12:15 29.08645 -12.39587 34550 ft 384 kts 245°
2026-04-23 12:15 29.07473 -12.42338 34141 ft 387 kts 245°
2026-04-23 12:15 29.06289 -12.45108 33306 ft 388 kts 245°
2026-04-23 12:16 29.05101 -12.47888 32593 ft 387 kts 245°
2026-04-23 12:16 29.03930 -12.50624 32150 ft 381 kts 245°
2026-04-23 12:16 29.02771 -12.53329 31628 ft 376 kts 245°
2026-04-23 12:16 29.01627 -12.55998 31127 ft 373 kts 245°
2026-04-23 12:17 29.00492 -12.58648 30630 ft 369 kts 245°
2026-04-23 12:17 28.99369 -12.61270 30139 ft 366 kts 245°
2026-04-23 12:17 28.98254 -12.63870 29592 ft 362 kts 245°
2026-04-23 12:17 28.97151 -12.66435 29122 ft 357 kts 245°
2026-04-23 12:18 28.96079 -12.68933 28662 ft 353 kts 245°
2026-04-23 12:18 28.95001 -12.71436 28187 ft 349 kts 245°
2026-04-23 12:18 28.93923 -12.73942 27731 ft 345 kts 245°
2026-04-23 12:18 28.92883 -12.76358 27290 ft 342 kts 245°
2026-04-23 12:19 28.91835 -12.78783 26848 ft 339 kts 245°
2026-04-23 12:19 28.90800 -12.81187 26411 ft 336 kts 245°
2026-04-23 12:19 28.89764 -12.83570 25946 ft 334 kts 244°
2026-04-23 12:19 28.88715 -12.85926 25484 ft 332 kts 244°
2026-04-23 12:20 28.87662 -12.88262 25042 ft 330 kts 243°
2026-04-23 12:20 28.86611 -12.90584 24605 ft 328 kts 243°
2026-04-23 12:20 28.85370 -12.92770 23931 ft 335 kts 230°
2026-04-23 12:20 28.83736 -12.94715 23151 ft 343 kts 227°
2026-04-23 12:21 28.82055 -12.96652 22542 ft 343 kts 227°
2026-04-23 12:21 28.80384 -12.98582 22006 ft 342 kts 227°
2026-04-23 12:21 28.78720 -13.00511 21491 ft 340 kts 227°
2026-04-23 12:21 28.77069 -13.02430 20996 ft 338 kts 227°
2026-04-23 12:22 28.75430 -13.04343 20508 ft 337 kts 227°
2026-04-23 12:22 28.73803 -13.06252 20025 ft 335 kts 227°
2026-04-23 12:22 28.72188 -13.08154 19559 ft 333 kts 227°
2026-04-23 12:22 28.70585 -13.10052 19096 ft 332 kts 227°
2026-04-23 12:23 28.68991 -13.11949 18646 ft 331 kts 227°
2026-04-23 12:23 28.67409 -13.13841 18177 ft 329 kts 227°
2026-04-23 12:23 28.65834 -13.15729 17693 ft 328 kts 227°
2026-04-23 12:23 28.64270 -13.17603 17233 ft 326 kts 227°
2026-04-23 12:24 28.62715 -13.19467 16768 ft 324 kts 227°
2026-04-23 12:24 28.61168 -13.21318 16344 ft 322 kts 227°
2026-04-23 12:24 28.59628 -13.23160 15915 ft 320 kts 227°
2026-04-23 12:24 28.58100 -13.24987 15496 ft 318 kts 227°
2026-04-23 12:25 28.56597 -13.26786 15090 ft 316 kts 227°
2026-04-23 12:25 28.55084 -13.28596 14682 ft 315 kts 227°
2026-04-23 12:25 28.53579 -13.30397 14277 ft 313 kts 227°
2026-04-23 12:25 28.52083 -13.32187 13872 ft 312 kts 227°
2026-04-23 12:26 28.50593 -13.33968 13426 ft 310 kts 227°
2026-04-23 12:26 28.49110 -13.35738 12972 ft 308 kts 227°
2026-04-23 12:26 28.47631 -13.37497 12530 ft 307 kts 227°
2026-04-23 12:26 28.46161 -13.39240 12092 ft 305 kts 227°
2026-04-23 12:27 28.44695 -13.40973 11653 ft 303 kts 227°
2026-04-23 12:27 28.43234 -13.42693 11217 ft 302 kts 227°
2026-04-23 12:27 28.41778 -13.44402 10785 ft 300 kts 227°
2026-04-23 12:27 28.40328 -13.46100 10456 ft 296 kts 227°
2026-04-23 12:28 28.38924 -13.47739 10335 ft 284 kts 227°
2026-04-23 12:28 28.37572 -13.49312 10187 ft 274 kts 227°
2026-04-23 12:28 28.36258 -13.50836 9887 ft 270 kts 227°
2026-04-23 12:28 28.34944 -13.52356 9489 ft 269 kts 227°
2026-04-23 12:29 28.33647 -13.53855 9102 ft 268 kts 227°
2026-04-23 12:29 28.32376 -13.55319 8711 ft 267 kts 227°
2026-04-23 12:29 28.31073 -13.56820 8308 ft 266 kts 227°
2026-04-23 12:29 28.29776 -13.58310 7903 ft 265 kts 227°
2026-04-23 12:30 28.28501 -13.59771 7624 ft 260 kts 227°
2026-04-23 12:30 28.27259 -13.61188 7489 ft 248 kts 227°
2026-04-23 12:30 28.26052 -13.62557 7377 ft 236 kts 227°
2026-04-23 12:30 28.24916 -13.63843 7255 ft 225 kts 227°
2026-04-23 12:31 28.23833 -13.65060 7010 ft 220 kts 227°
2026-04-23 12:31 28.22749 -13.66276 6711 ft 219 kts 227°
2026-04-23 12:31 28.21666 -13.67492 6374 ft 219 kts 227°
2026-04-23 12:31 28.20584 -13.68704 6018 ft 219 kts 227°
2026-04-23 12:32 28.19734 -13.70091 5663 ft 214 kts 255°
2026-04-23 12:32 28.19619 -13.71750 5326 ft 211 kts 275°
2026-04-23 12:32 28.19755 -13.73407 5178 ft 213 kts 277°
2026-04-23 12:32 28.19919 -13.75084 5032 ft 215 kts 277°
2026-04-23 12:33 28.20134 -13.76758 4876 ft 215 kts 289°
2026-04-23 12:33 28.20922 -13.78166 4728 ft 212 kts 313°
2026-04-23 12:33 28.21958 -13.79311 4533 ft 205 kts 317°
2026-04-23 12:33 28.22997 -13.80393 4325 ft 201 kts 317°
2026-04-23 12:34 28.24019 -13.81456 4089 ft 198 kts 317°
2026-04-23 12:34 28.25029 -13.82511 3846 ft 196 kts 317°
2026-04-23 12:34 28.26081 -13.83472 3639 ft 193 kts 325°
2026-04-23 12:34 28.27207 -13.84280 3443 ft 191 kts 331°
2026-04-23 12:35 28.28369 -13.84999 3233 ft 190 kts 332°
2026-04-23 12:35 28.29539 -13.85704 3009 ft 190 kts 332°
2026-04-23 12:35 28.30693 -13.86402 2793 ft 185 kts 333°
2026-04-23 12:35 28.31899 -13.86810 2474 ft 184 kts 358°
2026-04-23 12:36 28.33131 -13.86778 2216 ft 180 kts
2026-04-23 12:36 28.34354 -13.86737 1982 ft 176 kts
2026-04-23 12:36 28.35550 -13.86697 1739 ft 167 kts
2026-04-23 12:36 28.36654 -13.86661 1542 ft 149 kts
2026-04-23 12:37 28.37655 -13.86625 1342 ft 140 kts
2026-04-23 12:37 28.38630 -13.86595 1170 ft 140 kts
2026-04-23 12:37 28.39584 -13.86564 977 ft 136 kts
2026-04-23 12:37 28.40530 -13.86533 788 ft 137 kts
2026-04-23 12:38 28.41477 -13.86500 599 ft 136 kts
2026-04-23 12:38 28.42414 -13.86469 423 ft 134 kts
2026-04-23 12:38 28.43357 -13.86439 259 ft 136 kts
2026-04-23 12:38 28.44302 -13.86407 82 ft 135 kts
2026-04-23 12:39 28.45128 -13.86380 78 ft 96 kts
2026-04-23 12:39 28.45625 -13.86365 85 ft 47 kts
2026-04-23 12:39 28.45899 -13.86358 90 ft 36 kts 352°
2026-04-23 12:39 28.46094 -13.86447 93 ft 16 kts 333°
2026-04-23 12:40 28.46145 -13.86492 96 ft 6 kts 288°
2026-04-23 12:40 28.46142 -13.86512 97 ft 0 kts 252°
2026-04-23 12:40 28.46134 -13.86528 98 ft 7 kts 234°
2026-04-23 12:40 28.46044 -13.86544 99 ft 20 kts 182°
2026-04-23 12:41 28.45895 -13.86550 99 ft 21 kts 181°
2026-04-23 12:41 28.45757 -13.86557 98 ft 9 kts 182°
2026-04-23 12:41 28.45705 -13.86588 98 ft 7 kts 239°
2026-04-23 12:41 28.45711 -13.86636 99 ft 6 kts 279°
2026-04-23 12:42 28.45715 -13.86689 100 ft 10 kts 269°
2026-04-23 12:42 28.45635 -13.86726 99 ft 16 kts 182°
2026-04-23 12:42 28.45509 -13.86730 100 ft 20 kts 181°
2026-04-23 12:42 28.45357 -13.86735 99 ft 21 kts 181°
2026-04-23 12:43 28.45311 -13.86737 99 ft 0 kts 182°
2026-04-23 12:44 28.45310 -13.86737 99 ft 0 kts 182°
2026-04-23 12:44 28.45307 -13.86737 99 ft 1 kts 182°
2026-04-23 12:44 28.45277 -13.86737 99 ft 7 kts 180°
2026-04-23 12:44 28.45248 -13.86738 99 ft 1 kts 180°
2026-04-23 12:45 28.45241 -13.86738 99 ft 1 kts 180°
2026-04-23 12:45 28.45226 -13.86746 101 ft 4 kts 229°
2026-04-23 12:45 28.45223 -13.86808 99 ft 9 kts 272°
2026-04-23 12:45 28.45224 -13.86833 100 ft 1 kts 271°
2026-04-23 12:46 28.45224 -13.86836 100 ft 0 kts 271°